Retour au catalogue

STARLINK-33595

ActifCommunicationsVLEO
NORAD 62766·PAYLOAD·🇺🇸 United States

Lancé Jan 21, 2025 depuis Vandenberg Space Force Base

Loading…

Prochains Passages (prochaines 24 heures)

TLE

FraisSource: CelesTrak SupGP

Époque: Sep 14, 2026, 22:56 UTC

1 62766C 25015J   26257.95604167 -.00074007  00000+0 -21861-2 0  2576
2 62766  53.1569 159.3102 0001221  80.0281 345.1228 15.34434115    11

Suivez STARLINK-33595 en temps réel avec AllMySat

Download on the App Store